Regional Weather Roundup
Issued by NWS

Home | Current Version | Previous Version | Graphics & Text | Print | Product List | Glossary Off
Versions: 1 2 3 4 5 6 7 8 9 10 11 12 13 14 15 16 17 18 19 20 21 22 23 24 25 26 27 28 29 30 31 32 33 34 35 36 37 38 39 40 41 42 43 44 45 46 47 48 49 50

000
ASUS43 KMKX 290311
RWRWI

WISCONSIN REGIONAL WEATHER ROUNDUP
NATIONAL WEATHER SERVICE MILWAUKEE/SULLIVAN WI
1000 PM CDT THU JUL 28 2016

NOTE: "FAIR" INDICATES FEW OR NO CLOUDS BELOW 12,000 FEET WITH NO
SIGNIFICANT WEATHER AND/OR OBSTRUCTIONS TO VISIBILITY.

WIZ001-002-006>008-014>016-023>028-290400-
NORTHWEST WISCONSIN

CITY           SKY/WX    TMP DP  RH WIND       PRES   REMARKS
SUPERIOR ARPT  CLEAR     58  57  96 E5        30.09S
ASHLAND        CLEAR     55  52  89 CALM      30.10R
HAYWARD        CLEAR     57  53  86 CALM      30.09R
SIREN          NOT AVBL
CUMBERLAND     CLOUDY    63  52  67 N9        30.07S
RICE LAKE      CLOUDY    65  55  70 N9        30.07S
CHETEK         CLOUDY    67  57  71 NE5       30.06R
LADYSMITH      CLOUDY    65  58  78 N8        30.08R
EAU CLAIRE     CLOUDY    65  62  90 CALM      30.03S
MENOMONIE      CLOUDY    66  62  87 CALM      30.05S
NEW RICHMOND   PTCLDY    65  57  74 NE8       30.05S
OSCEOLA        CLEAR     63  57  80 NE3       30.07S
$$

WIZ003>005-009-010-017-018-290400-
NORTH CENTRAL WISCONSIN

CITY           SKY/WX    TMP DP  RH WIND       PRES   REMARKS
MANITOWISH WTR CLEAR     58  55  90 NE5       30.10R
ARBOR VITAE    CLEAR     62  54  75 NE3       30.09S
WOODRUFF       CLEAR     62  54  75 NE3       30.09S
RHINELANDER    CLEAR     61  51  70 NE6       30.08R
EAGLE RIVER    CLEAR     57  49  75 N3        30.09R
LAND O LAKES   PTCLDY    55  51  86 CALM      30.11R
PHILLIPS       CLEAR     60  55  83 NE7       30.08R
TOMAHAWK       PTCLDY    61  53  72 NE3       30.07S
MEDFORD        CLOUDY    65  65 100 NE8       30.05R
MERRILL        CLOUDY    66  61  84 NE5       30.06R
$$

WIZ029-030-035-036-043>047-290400-
CENTRAL WISCONSIN

CITY           SKY/WX    TMP DP  RH WIND       PRES   REMARKS
WAUSAU         CLOUDY    66  62  87 NE3       30.03R
MOSINEE        LGT RAIN  64  63  94 NE5       30.04S
MARSHFIELD     CLOUDY    65  61  87 NE6       30.03R
STEVENS POINT  CLOUDY    62  61  97 NE3       30.03R
WAUPACA        CLOUDY    67  64  88 N3        30.01S
WAUTOMA        CLOUDY    66  61  84 NE6       30.00
WISC RAPIDS    CLOUDY    66  59  78 E8        30.02S
CAMP DOUGLAS   CLOUDY    66  64  90 N5        30.00R
$$

WIZ011>013-019>022-031-037>040-048>050-290400-
NORTHEAST WISCONSIN

CITY           SKY/WX    TMP DP  RH WIND       PRES   REMARKS
ANTIGO         CLOUDY    63  57  82 CALM      30.06S
SHAWANO        CLOUDY    70  64  80 NE10      30.02R
OCONTO         MOCLDY    64  60  85 NE9       30.01S
STURGEON BAY   CLOUDY    66  59  78 N13       30.01S
GREEN BAY      MOCLDY    67  64  90 NE12      30.00R
MANITOWOC      LGT RAIN  65  62  90 NE5       29.99R
APPLETON       MOCLDY    66  59  77 N7        29.99R
CLINTONVILLE   CLOUDY    66  61  82 NE3       30.01S
OSHKOSH        CLOUDY    69  58  67 E10       29.99R
$$

WIZ032>034-041-042-053>061-290400-
SOUTHWEST WISCONSIN

CITY           SKY/WX    TMP DP  RH WIND       PRES   REMARKS
LA CROSSE      CLOUDY    65  62  90 N6        29.99R
SPARTA         CLOUDY    62  61  96 NE3       30.01R
VIROQUA        CLOUDY    65  65 100 NE5       30.00R
BOSCOBEL       CLOUDY    72  66  81 NE3       29.96R
PRAIRIE DU CHI LGT RAIN  67  65  96 NW7       29.96R
PLATTEVILLE    MOCLDY    71  70  98 NE10      29.95R
$$

WIZ056-057-062-063-064-067-068-290400-
SOUTH CENTRAL WISCONSIN

CITY           SKY/WX    TMP DP  RH WIND       PRES   REMARKS
REEDSBURG      CLOUDY    68  64  89 E5        29.97S
BARABOO/DELLS  CLOUDY    67  62  83 E9        29.98R
LONE ROCK      CLOUDY    70  64  81 NE8       29.97R
MINERAL POINT  CLOUDY    70  70 100 NE7       29.96R
MADISON        CLOUDY    70  62  76 E8        29.96R
MIDDLETON      CLOUDY    70  64  82 E3        29.97S
WATERTOWN      CLOUDY    67  62  83 NE6       29.97R
MONROE         CLOUDY    68  64  88 NE8       29.96R
JANESVILLE     NOT AVBL
$$

WIZ051-052-058>065-066-070>072-290400-
SOUTHEAST WISCONSIN

CITY           SKY/WX    TMP DP  RH WIND       PRES   REMARKS
MILWAUKEE      CLOUDY    68  63  84 N12       29.95R
WAUKESHA       CLOUDY    64  59  82 N3        29.98R
MILWAUKEE/TIMM CLOUDY    66  59  77 N7        29.97R
RACINE         MOCLDY    66  63  90 N12       29.95F
BURLINGTON     CLOUDY    67  65  92 NE6       29.95S
KENOSHA        PTCLDY    68  66  93 N8        29.94S
FOND DU LAC    CLOUDY    68  57  68 NE10      29.99R
SHEBOYGAN      CLOUDY    65  59  81 NE16      29.97S
WEST BEND      CLOUDY    64  55  72 N6        29.98R
JUNEAU         CLOUDY    66  60  82 NE6       29.98S
$$

LSZ147-162-290400-
LAKE SUPERIOR

STATION/POSITION TIME  TEMP    WIND        PRES    WAVE
                       AIR SEA DIR/SP/G            HT/PER
                 (UTC) (F)     (DEG/KT/KT) (MB)    (FT/S)
W MID LAKE BUOY  0250   61 61  340/  4/  6 1018.7R   1/ 4
DEVILS ISLAND    0300   63      40/  4/  4 1019.4R
PORT WING        0240   60      CALM  /  2 1019.3R
SAXON HARBOR     0200   61     180/  2/  3 1018.3R
$$

LMZ867-665-643>646-290400-
LAKE MICHIGAN

STATION/POSITION TIME  TEMP    WIND        PRES    WAVE
                       AIR SEA DIR/SP/G            HT/PER
                 (UTC) (F)     (DEG/KT/KT) (MB)    (FT/S)
CHAMBERS ISLAND  0200   69     350/ 19/ 23 1016.3R
N MID LAKE BUOY  0250   67 70   10/ 19/ 21 1015.3R   3/ 4
NORTHPORT PIER   0200   69      10/ 16/ 20 1016.3R
SISTER BAY       0106   70      20/ 11/ 15   N/A
ALGOMA LAKESHORE 0228           30/  9/ 13   N/A
KEWAUNEE LAKESHO 0200                      1014.9
SHEBOYGAN LAKESH 0300   62      10/ 15/ 16 1015.3R
PORT WASHINGTON  0200   68     350/  6/ 12 1014.9
ATWATER BUOY     0300   64 63  360/ 12/ 16 1015.6R
MILWAUKEE LAKESH 0210   65     350/ 14/ 16   N/A
S MID LAKE BUOY  0250   74 75  100/ 10/ 12 1012.3F   2/ 6
KENOSHA   LAKESH 0300   68     350/  9/ 13 1013.2S
$$

TC  - TEMPERATURE IN CELSIUS
VSB - VISIBILITY IN STATUTE MILES
WCI - WIND CHILL INDEX
HX  - HEAT INDEX





USA.gov is the U.S. government's official web portal to all federal, state and local government web resources and services.